Regional Weather Roundup
Issued by NWS

Home | Current Version | Previous Version | Graphics & Text | Print | Product List | Glossary On
Versions: 1 2 3 4 5 6 7 8 9 10 11 12 13 14 15 16 17 18 19 20 21 22 23 24 25 26 27 28 29 30 31 32 33 34 35 36 37 38 39 40 41 42 43 44 45 46 47 48 49 50
000
ASUS45 KPSR 271100
RWRAZ

PRELIMINARY ARIZONA REGIONAL HOURLY WEATHER ROUNDUP
NATIONAL WEATHER SERVICE PHOENIX AZ
400 AM MST TUE JAN 27 2015

NOTE: FAIR INDICATES FEW OR NO CLOUDS BELOW 12,000 FEET WITH NO
SIGNIFICANT WEATHER AND/OR OBSTRUCTIONS TO VISIBILITY.

AZZ001>003-036-271200-
NORTHWEST ARIZONA

CITY           SKY/WX    TMP DP  RH WIND       PRES   REMARKS
KINGMAN        CLOUDY    46  44  93 S3        30.21F
$$

AZZ004>008-015-016-018-271200-
NORTH CENTRAL ARIZONA

CITY           SKY/WX    TMP DP  RH WIND       PRES   REMARKS
GRAND CANYON   LGT RAIN  38  36  92 NE3       30.29F
PRESCOTT       CLOUDY    45  41  86 SE5       30.25S
FLAGSTAFF      NOT AVBL
PAYSON         CLOUDY    48  32  53 E3        30.30S
$$

AZZ009>014-017-271200-
NORTHEAST ARIZONA

CITY           SKY/WX    TMP DP  RH WIND       PRES   REMARKS
WINSLOW        NOT AVBL
SAINT JOHNS    LGT RAIN  40  33  76 CALM      30.30S
WINDOW ROCK    CLEAR     25  22  88 S3        30.34S
SHOW LOW       MOCLDY    39  28  65 S9        30.33F WCI  33
$$

AZZ023-271200-
GREATER PHOENIX AREA

CITY           SKY/WX    TMP DP  RH WIND       PRES   REMARKS
PHOENIX        MOCLDY    56  50  80 SW3       30.17S
LUKE AFB       NOT AVBL
DEER VALLEY    MOCLDY    56  50  80 CALM      30.18R
SCOTTSDALE     CLOUDY    55  50  83 CALM      30.20R
$$

AZZ027-028-271200-
SOUTHWEST MARICOPA COUNTY AND PINAL COUNTY

CITY           SKY/WX    TMP DP  RH WIND       PRES   REMARKS
CASA GRANDE    CLOUDY    52  46  82 CALM      30.19S
GILA BEND      FAIR      52  50  94 E2        30.17S
$$

AZZ503-504-507>509-271200-
SOUTHEAST ARIZONA

CITY           SKY/WX    TMP DP  RH WIND       PRES   REMARKS
TUCSON         CLOUDY    52  44  74 SE6       30.22S
DAVIS-MONTHAN  CLOUDY    54  44  70 SE3       30.20S
NOGALES        PTCLDY    48  44  86 NE6       30.23S
SIERRA VISTA   MOCLDY    48  39  71 S3        30.27S
SAFFORD        CLEAR     50  36  58 E9        30.25F
$$

AZZ020-021-025-026-031-271200-
SOUTHWEST ARIZONA

CITY           SKY/WX    TMP DP  RH WIND       PRES   REMARKS
YUMA           CLOUDY    57  52  83 N9        30.17R
$$

CAZ031-033-041-043-047-048-061-271200-
SOUTHERN CALIFORNIA

CITY           SKY/WX    TMP DP  RH WIND       PRES   REMARKS
DOWNTOWN L.A.  CLOUDY    58  53  84 CALM      30.12R
L.A. AIRPORT   MOCLDY    56  53  90 CALM      30.13R
SAN DIEGO      MOCLDY    56  50  80 CALM      30.13R
BURBANK        MOCLDY    54  53  97 CALM      30.12R
ONTARIO        MOCLDY    55  53  93 CALM      30.13R FOG
RIVERSIDE      CLOUDY    54  53  97 CALM      30.14R FOG
PALM SPRINGS   CLOUDY    58  55  90 CALM      30.19S
EL CENTRO NAS  CLOUDY    57  55  93 CALM      30.17S
IMPERIAL       MOCLDY    56  54  93 CALM      30.16S
BLYTHE         LGT RAIN  55  53  93 N5        30.19R
NEEDLES        CLOUDY    54  51  90 CALM      30.21S
$$

NVZ020-UTZ003-271200-
SOUTHERN NEVADA-UTAH

CITY           SKY/WX    TMP DP  RH WIND       PRES   REMARKS
LAS VEGAS      NOT AVBL
SALT LAKE CITY PTCLDY    30  29  96 CALM      30.19R FOG
$$

NMZ009-TXZ055-271200-
NEW MEXICO-WEST TEXAS

CITY           SKY/WX    TMP DP  RH WIND       PRES   REMARKS
ALBUQUERQUE    PTCLDY    38  27  64 N3        30.32F
EL PASO        CLOUDY    47  36  65 CALM      30.28S
$$


........................KEY........................
SKY/WX - SKY CONDITION/WEATHER
TMP    - TEMPERATURE IN FAHRENHEIT
DP     - DEW POINT IN FAHRENHEIT
RH     - RELATIVE HUMIDITY IN PERCENT
WIND   - DIRECTION AND SPEED IN MILES PER HOUR (MPH)
VRB    - VARIABLE WIND DIRECTION
PRES   - MEAN SEA LEVEL PRESSURE IN INCHES OF MERCURY
         F - FALLING PRESSURE   R - RISING PRESSURE
         S - STEADY PRESSURE
VSB    - VISIBILITY IN MILES
HX     - HEAT INDEX IN FAHRENHEIT
WCI    - WIND CHILL INDEX IN FAHRENHEIT
TC     - TEMPERATURE IN CELSIUS WHICH IS ALSO KNOWN AS
         TEMPERATURE IN CENTIGRADE
AFB    - AIR FORCE BASE
         LUKE AFB IS LUKE AIR FORCE BASE
         DAVIS-MONTHAN IS DAVIS-MONTHAN AIR FORCE BASE
NAS    - NAVAL AIR STATION
         EL CENTRO NAS IS EL CENTRO NAVAL AIR STATION
N/A    - NOT AVAILABLE



USA.gov is the U.S. government's official web portal to all federal, state and local government web resources and services.